Volver al catálogo

STARLINK-34387

ActivoComunicacionesVLEO
NORAD 64315·PAYLOAD·🇺🇸 United States

Lanzado Jun 8, 2025 desde Vandenberg Space Force Base

Loading…

Próximos Pases (próximas 24 horas)

TLE

ActualizadoSource: CelesTrak SupGP

Época: Sep 14, 2026, 20:39 UTC

1 64315C 25123AA  26257.86090278  .00010215  00000+0  35539-3 0  2577
2 64315  70.0003  75.7859 0003487 271.8085 218.5445 15.29568738    19

Sigue STARLINK-34387 en tiempo real con AllMySat

Download on the App Store